This demonstration page uses our WeatherBlox Daily Observations layout. Learn more.

Left ArrowRight Arrow

38.20091, -84.87328

Hourly Observations for July 24, 2020

Temp ( °F °C ) Dew Point ( °F °C ) Humidity (%) Winds ( mph kmh ) Pressure ( in mb ) Visibility ( mi km ) Precip ( " mm )
12:53 am 00:53 Clear 73 22.8 70 21.1 90 90 Calm 30.09 1019 10 16 0.00 0.00
1:53 am 01:53 Clear 71 21.7 68 20 90 90 Calm 30.09 1019 8 13 0.00 0.00
2:53 am 02:53 Mostly Clear 72 22.2 69 20.6 91 91 Calm 30.09 1019 7 11 0.00 0.00
3:53 am 03:53 Clear 70 21.1 68 20 93 93 SSE 5 7 30.08 1019 9 14 0.00 0.00
4:53 am 04:53 Clear with Mist and Fog 69 20.6 67 19.4 93 93 Calm 30.09 1019 6 10 0.00 0.00
5:36 am 05:36 Mostly Clear with Mist and Fog 70 21.1 67 19.4 90 90 NW 3 6 30.09 1019 3 4 0.00 0.00
5:40 am 05:40 Mostly Cloudy with Mist and Fog 69 20.6 67 19.4 93 93 NNW 3 6 30.09 1019 1 2 0.00 0.00
5:48 am 05:48 Mostly Cloudy with Mist and Fog 68 20 66 19 94 94 Calm 30.09 1019 1 1 0.00 0.00
5:51 am 05:51 Partly Cloudy with Mist and Fog 68 20 66 19 94 94 Calm 30.09 1019 1 2 0.00 0.00
5:53 am 05:53 Mostly Clear with Mist and Fog 68 20 66 18.9 93 93 Calm 30.09 1019 3 4 0.00 0.00
6:00 am 06:00 Mostly Clear with Mist and Fog 68 20 67 19.4 96 96 Calm 30.09 1019 6 10 0.00 0.00
6:30 am 06:30 Clear with Mist and Fog 68 20 66 18.9 93 93 Calm 30.10 1019 2 2 0.00 0.00
6:41 am 06:41 Sunny with Mist and Fog 68 20 66 18.9 93 93 Calm 30.10 1019 3 5 0.00 0.00
6:49 am 06:49 Partly Cloudy with Mist and Fog 68 20 66 19 94 94 Calm 30.10 1019 3 4 0.00 0.00
6:53 am 06:53 Partly Cloudy with Mist and Fog 68 20 66 18.9 93 93 Calm 30.10 1019 1 2 0.00 0.00
7:00 am 07:00 Mostly Cloudy with Mist and Fog 67 19.4 65 18.3 93 93 Calm 30.11 1020 2 3 0.00 0.00
7:09 am 07:09 Mostly Cloudy with Mist and Fog 67 19.4 66 18.9 97 97 Calm 30.11 1020 1 2 0.00 0.00
7:20 am 07:20 Partly Cloudy with Mist and Fog 70 21.1 67 19.4 90 90 Calm 30.11 1020 2 3 0.00 0.00
7:24 am 07:24 Partly Cloudy with Mist and Fog 70 21.1 67 19.4 90 90 Calm 30.11 1020 4 6 0.00 0.00
7:53 am 07:53 Sunny 72 22.2 69 20.6 91 91 Calm 30.11 1020 7 11 0.00 0.00
8:53 am 08:53 Sunny 77 25 71 21.7 82 82 Calm 30.13 1020 10 16 0.00 0.00
9:53 am 09:53 Sunny 80 26.7 72 22.2 76 76 Calm 30.14 1021 10 16 0.00 0.00
10:21 am 10:21 Mostly Cloudy 81 27.2 72 22.2 74 74 VRB 3 6 30.13 1020 10 16 0.00 0.00
10:32 am 10:32 Mostly Cloudy 81 27.2 72 22.2 74 74 NW 5 7 30.13 1020 10 16 0.00 0.00
10:53 am 10:53 Mostly Cloudy 82 27.8 73 22.8 74 74 W 3 6 30.14 1021 10 16 0.00 0.00
11:02 am 11:02 Partly Cloudy 84 28.9 72 22.2 67 67 Calm 30.12 1020 10 16 0.00 0.00
11:53 am 11:53 Mostly Cloudy 85 29.4 70 21.1 61 61 undefined N/A 30.14 1021 10 16 0.00 0.00
12:53 pm 12:53 Partly Cloudy 86 30 68 20 55 55 NW 3 6 30.14 1021 10 16 0.00 0.00
1:53 pm 13:53 Partly Cloudy 88 31.1 67 19.4 50 50 VRB 7 11 30.12 1020 10 16 0.00 0.00
2:53 pm 14:53 Mostly Sunny 88 31.1 66 18.9 48 48 WNW 10 17 30.10 1019 10 16 0.00 0.00
3:53 pm 15:53 Mostly Sunny 89 31.7 66 18.9 47 47 undefined N/A 30.08 1019 10 16 0.00 0.00
4:53 pm 16:53 Mostly Sunny 90 32.2 65 18.3 44 44 VRB 6 9 30.06 1018 10 16 0.00 0.00
5:53 pm 17:53 Mostly Sunny 89 31.7 65 18.3 45 45 NW 8 13 30.06 1018 10 16 0.00 0.00
6:53 pm 18:53 Sunny 88 31.1 65 18.3 46 46 NNW 6 9 30.06 1018 10 16 0.00 0.00
7:53 pm 19:53 Sunny 87 30.6 66 18.9 50 50 NNW 6 9 30.07 1018 10 16 0.00 0.00
8:53 pm 20:53 Sunny 82 27.8 66 18.9 58 58 NNW 3 6 30.08 1019 10 16 0.00 0.00
9:53 pm 21:53 Partly Cloudy 76 24.4 67 19.4 74 74 Calm 30.09 1019 10 16 0.00 0.00
10:53 pm 22:53 Clear 75 23.9 67 19.4 76 76 NNW 3 6 30.09 1019 10 16 0.00 0.00
11:53 pm 23:53 Clear 71 21.7 66 18.9 84 84 Calm 30.10 1019 10 16 0.00 0.00

Powered by AerisWeather